Location: Brodie Road Observatory
(45.4241°N, 74.5431°W)
Time: 04:57:00
(UTC-04:00)

Daily predictions for brighter satellites

Satellite Brightness Start Highest point End
(mag) Time Altitude Azimuth Time Altitude Azimuth Time Altitude Azimuth
SeaSat 1 3.4 00:09:02 42° NNE 00:09:02 42° NNE 00:12:50 10° NNW
Lacrosse 5 3.3 00:07:01 10° NW 00:09:44 31° WNW 00:09:44 31° WNW
Cosmos 1459 Rocket 4.1 00:15:58 72° NNE 00:15:58 72° NNE 00:21:24 10° N
Cosmos 1943 Rocket 3.6 00:32:51 10° NW 00:36:08 28° WNW 00:36:08 28° WNW
BREEZE M DEB (TANK) 4.4 00:32:11 10° WNW 00:36:54 32° WNW 00:36:54 32° WNW
H-2A R/B 3.9 00:45:23 29° NNW 00:45:23 29° NNW 00:47:43 10° NNW
Cosmos 1656 Rocket 4.5 00:40:26 10° NNW 00:44:31 47° NW 00:44:31 47° NW
Cosmos 2061 Rocket 4.3 00:50:16 61° WNW 00:50:16 61° WNW 00:56:18 10° N
Cosmos 1802 Rocket 4.3 00:51:22 58° NW 00:51:22 58° NW 00:56:56 10° N
USA 267 4.2 00:48:07 10° NE 00:54:13 43° NNW 01:00:18 10° W
Cosmos 968 Rocket 4.5 00:59:22 10° NNW 01:03:17 44° NNE 01:03:17 44° NNE
COSMOS 2406 4.2 01:08:41 40° ENE 01:08:41 40° ENE 01:12:33 10° NE
Cosmos 2233 Rocket 4.2 01:08:31 64° NE 01:08:31 64° NE 01:13:46 10° NNE
ADEOS Rocket 3.2 01:15:13 10° N 01:21:59 71° WNW 01:21:59 71° WNW
Cosmos 2082 Rocket 4.3 01:24:50 15° E 01:24:50 15° E 01:27:14 10° ENE
Mayak 1.2 01:31:48 10° NNW 01:33:35 18° NW 01:33:35 18° NW
Resurs 1-4 Rocket 4.3 01:39:25 10° ENE 01:42:06 14° E 01:42:27 14° E
Cosmos 1833 Rocket 3.9 01:59:55 33° E 01:59:55 33° E 02:04:21 10° NE
Cosmos 2369 4.0 01:53:56 10° NNW 01:59:23 62° NE 01:59:23 62° NE
Lacrosse 4 Rocket 3.0 02:01:35 10° NNW 02:05:06 36° NNE 02:05:06 36° NNE
CZ-4B R/B 4.3 02:13:55 16° NNW 02:13:55 16° NNW 02:14:46 10° NNW
Meteor 2-9 Rocket 4.4 02:10:37 10° NNW 02:15:16 63° NNW 02:15:16 63° NNW
Gbstr 26 Del rocket 4.3 02:16:39 68° WSW 02:17:50 90° NW 02:25:01 10° ENE
Cosmos 1607 4.1 02:20:37 61° ESE 02:20:40 61° ESE 02:27:04 10° NE
Cosmos 2034 Rocket 3.8 02:25:57 84° SSW 02:26:09 88° W 02:32:27 10° N
ARIANE 5 R/B 4.2 02:27:54 10° NE 02:32:07 24° E 02:33:21 22° ESE
Cosmos 1867 3.6 02:28:03 10° NW 02:33:14 77° N 02:33:14 77° N
Lacrosse 5 rocket 2.9 02:35:46 32° ENE 02:35:46 32° ENE 02:38:08 10° ENE
Cosmos 1092 Rocket 4.2 02:29:56 10° N 02:36:09 68° E 02:37:32 53° SE
Cosmos 332 Rocket 4.1 02:37:47 62° NE 02:37:47 62° NE 02:41:51 10° NNE
Cosmos 371 Rocket 3.6 02:38:31 64° NE 02:38:31 64° NE 02:42:43 10° NNE
MOS 1 Rocket 4.2 02:33:42 10° N 02:37:14 41° NW 02:37:14 41° NW
Meteor 1-23 Rocket 4.2 02:38:30 74° SE 02:38:46 76° E 02:44:28 10° NNE
Meteor 2-4 Rocket 3.7 02:39:37 64° NW 02:39:37 64° NW 02:44:34 10° N
Exosat Rocket 4.1 02:34:25 10° NNW 02:40:19 90° SW 02:42:45 46° SSE
Okean 2 4.5 02:43:32 41° ENE 02:43:32 41° ENE 02:46:41 10° NNE
CZ-2D R/B 2.6 02:41:23 10° NNE 02:46:38 49° E 02:47:19 46° SE
Cosmos 967 Rocket 4.4 02:40:25 10° NW 02:46:34 65° WSW 02:46:34 65° WSW
Cosmos 2278 4.0 02:46:15 10° NNW 02:50:51 52° WNW 02:50:51 52° WNW
SL-16 R/B 2.5 02:51:48 52° SSE 02:53:31 85° ENE 02:59:50 10° NNW
Cosmos 1980 Rocket 2.5 02:49:41 10° NNW 02:55:16 64° ENE 02:58:12 29° SE
Cosmos 1697 Rocket 2.5 02:52:03 10° NNW 02:57:44 75° WSW 02:57:47 75° WSW
IRS-1D 4.0 02:53:32 10° NNE 02:58:36 52° E 02:59:31 46° SE
IRS-1C 4.2 02:57:33 10° NNE 03:02:54 69° ESE 03:03:43 59° SSE
ADEOS II 4.4 03:03:39 10° NE 03:07:13 18° E 03:10:46 10° SE
Cosmos 2082 Rocket 2.0 03:06:40 70° SW 03:07:18 80° WNW 03:12:59 10° NNE
SL-16 R/B 4.0 03:02:54 10° N 03:07:57 31° NE 03:12:58 10° ESE
Okean 1-7 Rocket 4.2 03:09:03 46° ESE 03:09:37 49° E 03:13:59 10° NNE
H-2A R/B 2.7 03:07:06 10° N 03:10:57 67° NNW 03:10:57 67° NNW
Cosmos 304 Rocket 4.0 03:11:51 56° SE 03:12:21 59° ESE 03:17:07 10° NNE
Nadezhda 4 Rocket 4.3 03:07:59 10° NNW 03:13:46 44° W 03:13:59 44° W
UNKNOWN OBJECT B 4.5 03:14:12 10° NE 03:17:29 26° E 03:18:22 24° ESE
ATLAS 3B R/B 4.1 03:16:15 18° SSE 03:20:06 29° ESE 03:25:56 10° NE
Cosmos 1544 3.5 03:18:21 10° N 03:21:44 61° NE 03:21:44 61° NE
MOZ.5/SAFIR/RUBIN 5/SL-8 3.7 03:21:27 64° SSE 03:22:12 90° W 03:26:59 10° NNW
Cosmos 2228 4.3 03:18:11 10° N 03:22:13 38° ENE 03:24:39 20° SE
Resurs 1-4 Rocket 2.0 03:17:17 10° NNE 03:22:34 81° WNW 03:23:32 60° SSW
Cosmos 2322 Rocket 3.6 03:18:23 10° NNW 03:23:38 38° NE 03:28:50 10° ESE
Cosmos 1606 Rocket 3.7 03:20:36 10° N 03:24:54 67° E 03:25:51 50° SE
Cosmos 1634 Rocket 3.9 03:24:53 49° SSW 03:26:39 75° W 03:32:58 10° N
Cosmos 1340 Rocket 4.0 03:28:57 30° NW 03:28:57 30° NW 03:31:42 10° N
ERS-1 4.3 03:26:36 10° NNE 03:31:36 89° ESE 03:32:47 54° SSW
IRS-P3 4.4 03:27:33 10° N 03:32:44 51° WNW 03:33:41 45° WSW
NPP 4.0 03:28:27 10° N 03:33:36 47° WNW 03:34:34 42° W
SJ 16-02 4.1 03:33:16 10° N 03:36:28 19° ENE 03:39:39 10° ESE
Cosmos 1763 Rocket 4.3 03:34:39 27° SSE 03:37:04 46° ESE 03:42:10 10° NNE
SL-08 R/B 4.1 03:37:48 36° W 03:37:48 36° W 03:41:47 10° NNW
CBERS-1 4.5 03:34:48 10° N 03:39:38 43° WNW 03:40:29 40° W
Cosmos 1892 Rocket 3.9 03:38:19 39° SSE 03:39:45 61° E 03:44:06 10° NNE
Cosmos 2279 Rocket 4.0 03:36:56 33° S 03:39:59 85° E 03:46:17 10° N
ATLAS CENTAUR R/B 4.4 03:39:11 10° N 03:42:15 19° NE 03:45:28 10° E
Cosmos 1025 Rocket 3.5 03:42:56 43° WNW 03:42:56 43° WNW 03:46:59 10° N
Cosmos 1842 4.4 03:41:25 26° SE 03:43:03 40° E 03:46:48 10° NNE
Cosmos 1833 Rocket 3.4 03:41:36 34° W 03:43:09 41° NW 03:48:29 10° NNE
Lacrosse 4 Rocket 3.7 03:40:34 10° NW 03:41:22 14° WNW 03:41:22 14° WNW
COSMOS 2487 2.8 03:45:12 54° NW 03:45:12 54° NW 03:48:21 10° NNE
Cosmos 2026 Rocket 4.1 03:40:39 10° NNW 03:46:54 58° W 03:49:31 34° SSW
Cosmos 2208 Rocket 4.0 03:46:29 45° SW 03:48:03 71° WNW 03:53:19 10° NNE
Cosmos 1898 Rocket 3.4 03:44:29 10° NNW 03:49:40 67° WSW 03:52:29 27° S
Cosmos 44 3.5 03:50:42 10° NW 03:55:56 82° NE 04:01:20 10° SE
Cosmos 1805 3.4 03:52:59 10° N 03:56:54 71° E 03:59:10 24° SSE
Cosmos 1953 4.3 03:53:40 10° NNE 03:57:18 30° ENE 04:00:53 10° SE
Cosmos 1937 Rocket 3.3 03:54:48 10° NNW 04:00:01 75° WSW 04:05:09 10° SSE
Iridium 4 Rocket 4.2 04:00:48 27° WNW 04:00:49 27° WNW 04:04:40 10° NNW
BREEZE-M R/B 3.2 04:00:43 40° S 04:01:23 46° SE 04:06:31 10° ENE
Cosmos 1570 Rocket 4.4 04:00:10 35° WSW 04:01:55 48° WNW 04:07:06 10° NNE
Cosmos 1766 3.2 04:00:12 10° NNW 04:04:02 63° W 04:04:58 46° SSW
Cosmos 858 Rocket 4.4 03:59:30 10° NNW 04:04:38 60° WSW 04:08:44 16° S
Cosmos 724 4.2 04:05:14 30° SSW 04:08:12 89° ESE 04:14:02 10° NE
ARIANE 5 R/B 2.9 04:06:26 10° N 04:11:28 48° WNW 04:13:42 30° SW
Timation 2 Rocket 4.0 04:07:41 23° SSW 04:11:31 75° ESE 04:17:29 10° NNE
Cosmos 1356 Rocket 3.9 04:10:57 35° W 04:11:36 38° WNW 04:15:25 10° N
Spot 4 Rocket 4.5 04:07:19 10° N 04:12:14 46° WNW 04:14:23 29° WSW
Lacrosse 5 rocket 2.7 04:11:25 21° WNW 04:13:26 31° NNW 04:17:06 10° NE
Cosmos 468 Rocket 4.2 04:12:08 31° SW 04:14:31 56° WNW 04:19:46 10° NNE
Cosmos 990 Rocket 4.0 04:10:09 10° NNW 04:15:12 56° WSW 04:20:13 10° S
Okean O Rocket 4.4 04:15:37 10° NE 04:18:06 15° E 04:20:33 10° SE
USA 267 4.4 04:12:17 10° E 04:18:23 43° NNE 04:24:30 10° NW
Cosmos 2266 Rocket 3.9 04:16:09 10° N 04:22:15 87° W 04:28:24 10° S
USA 238 DEB 3.8 04:17:41 21° SSW 04:22:28 77° SE 04:29:27 10° NE
USA 238 3.8 04:17:45 21° SSW 04:22:35 77° ESE 04:29:33 10° NE
Cosmos 1655 Rocket 4.4 04:17:18 10° NNW 04:23:20 46° W 04:27:55 17° SSW
Cosmos 1758 3.4 04:19:34 10° N 04:23:34 78° E 04:27:32 10° SSE
Cosmos 1814 Rocket 3.9 04:20:50 25° SSW 04:23:52 75° WNW 04:29:05 10° NNE
Cosmos 44 Rocket 3.3 04:19:34 10° NW 04:24:43 85° SW 04:29:55 10° SSE
Helios 1A Rocket 3.6 04:21:50 10° N 04:25:45 40° WNW 04:27:22 28° WSW
CZ-2D R/B 3.4 04:22:01 10° N 04:26:23 26° WNW 04:28:39 19° W
CZ-2D R/B 3.7 04:23:01 10° N 04:26:59 50° WNW 04:28:56 27° SW
Cosmos 2150 Rocket 4.1 04:23:19 10° NNW 04:28:43 59° WSW 04:34:03 10° S
DNEPR-1 R/B 4.4 04:26:52 16° S 04:29:57 44° ESE 04:34:19 10° NE
Cosmos 1733 3.2 04:29:39 10° N 04:33:32 83° ENE 04:37:24 10° S
Gblst 52 Del rocket 4.5 04:29:48 10° WNW 04:35:43 84° NNE 04:42:27 10° ESE
Cosmos 2298 Rocket 4.3 04:30:48 10° NNW 04:35:51 45° WSW 04:40:53 10° S
Cosmos 2360 Rocket 2.8 04:31:12 10° NNW 04:36:47 59° ENE 04:42:19 10° SE
Meteor 1-21 4.3 04:33:26 17° SSW 04:37:44 60° WNW 04:43:18 10° N
SL-16 R/B 4.0 04:36:53 16° W 04:37:53 17° W 04:41:46 10° NW
Cosmos 1980 Rocket 3.4 04:34:44 10° NW 04:38:44 20° W 04:39:51 19° WSW
PSLV R/B 4.1 04:37:30 10° NNE 04:41:41 57° E 04:45:48 10° S
ADEOS II 2.1 04:42:10 10° N 04:47:23 64° WNW 04:52:21 11° SSW
Meteor 2-11 Rocket 4.4 04:42:01 10° SSW 04:48:10 72° W 04:54:20 10° N
ADEOS 4.2 04:44:40 10° N 04:49:30 39° WNW 04:53:16 15° SW
Cosmos 1812 Rocket 3.5 04:47:00 10° N 04:51:30 85° W 04:55:57 10° S
UNKNOWN OBJECT B 4.0 04:48:41 10° NNW 04:51:54 25° WNW 04:53:49 17° WSW
SL-16 R/B 2.4 04:46:50 10° NW 04:52:14 46° WSW 04:57:37 10° S
Cosmos 2082 Rocket 4.1 04:48:47 10° W 04:52:21 17° NW 04:55:56 10° N
Cosmos 841 Rocket 3.7 04:48:23 16° SW 04:52:30 57° WNW 04:57:40 10° NNE
CZ-4B R/B 3.6 04:49:34 10° NNE 04:53:46 56° E 04:57:43 10° S
Cosmos 2058 Rocket 4.3 04:52:02 10° NW 04:55:35 24° W 04:58:12 14° SW
COSMOS 2428 4.4 04:50:26 10° NNW 04:55:46 38° NE 05:01:02 10° ESE
Cosmos 1602 Rocket 3.5 04:54:00 10° SSW 04:58:17 62° W 05:02:35 10° N
Cosmos 1470 2.7 04:55:17 10° NNW 04:59:15 65° W 05:03:10 10° S
Cosmos 2228 4.4 04:56:26 10° NW 04:59:28 19° W 05:01:28 14° WSW
NOSS 3-2 (C) 3.9 04:53:49 10° SSW 04:59:38 60° ESE 05:06:06 10° NE
Resurs 1-4 Rocket 4.1 04:59:11 10° NNW 05:01:35 13° NW 05:03:58 10° W
Cosmos 2219 Rocket 4.3 04:58:45 10° N 05:03:45 32° NE 05:08:42 10° ESE
Cosmos 1238 Rocket 4.5 04:58:13 10° S 05:04:43 72° E 05:11:23 10° NNE
Cosmos 2322 Rocket 2.7 05:02:32 10° NW 05:07:39 37° WSW 05:12:44 10° S
Cosmos 540 Rocket 3.5 05:03:18 10° SSW 05:08:25 71° WNW 05:13:35 10° NNE
Meteor 1-16 Rocket 4.5 05:03:51 10° N 05:09:34 75° ENE 05:15:03 10° SSE
ATLAS 3B R/B 2.9 05:03:31 11° SW 05:10:22 68° NW 05:17:15 10° NE
Cosmos 1626 Rocket 4.0 05:06:45 10° SSW 05:10:49 41° WNW 05:14:56 10° N
USA 161 2.3 05:10:05 10° SSE 05:13:03 57° ENE 05:15:57 10° N
SJ 16-02 1.5 05:11:05 10° NNW 05:15:21 49° WSW 05:19:37 10° S
NOSS 3-2 (A) 3.5 05:10:30 10° SW 05:16:27 82° NW 05:23:09 10° NE
Cosmos 1833 4.3 05:12:12 10° SSW 05:18:01 89° SE 05:23:51 10° NNE
Cosmos 292 Rocket 4.4 05:13:46 10° SW 05:18:20 41° WNW 05:22:54 10° N
Cosmos 1707 2.8 05:14:49 10° SSW 05:18:39 62° W 05:22:32 10° N
MOS 1-B 4.4 05:13:12 10° NNE 05:19:02 81° WNW 05:24:51 10° SSW
Cosmos 1378 3.6 05:15:29 10° SSW 05:19:03 43° WNW 05:22:41 10° N
ATLAS CENTAUR R/B 1.5 05:17:19 10° NW 05:21:44 81° SW 05:26:23 10° SSE
USA 215 3.3 05:18:47 10° NE 05:25:22 86° NW 05:31:55 10° SW
CENTAUR R/B 3.5 05:25:19 10° S 05:30:56 46° ESE 05:37:21 10° NE
CZ-4B R/B 3.6 05:26:54 10° NNE 05:32:29 70° ESE 05:37:56 10° S
